Weather Roundup
Issued by NWS Chicago, IL

Home | Current Version | Previous Version | Text Only | Print | Product List | Glossary Off
Versions: 1 2 3 4 5 6 7 8 9 10 11 12 13 14 15 16 17 18 19 20 21 22 23 24 25 26 27 28 29 30 31 32 33 34 35 36 37 38 39 40 41 42 43 44 45 46 47 48 49 50

000
NZUS59 KLOT 310908
HRRLOT

CHICAGO AREA WEATHER ROUNDUP
NATIONAL WEATHER SERVICE CHICAGO/ROMEOVILLE IL
400 AM CDT TUE MAY 31 2016

NOTE: "FAIR" INDICATES FEW OR NO CLOUDS BELOW 12,000 FEET WITH NO
SIGNIFICANT WEATHER AND/OR OBSTRUCTIONS TO VISIBILITY.

* THESE STATIONS ARE NOT UNDER NWS QUALITY CONTROL. THEY ALSO MAY NOT
  REPORT WEATHER SUCH AS PRECIPITATION OR FOG.

ILZ005-006-012>014-019>023-311000-
NORTHEAST ILLINOIS

CITY           SKY/WX    TMP DP  RH WIND       PRES   REMARKS
OHARE          MOCLDY    66  55  67 SE3       29.98F
MIDWAY         MOCLDY    69  55  60 E7        29.97F
AURORA         CLOUDY    65  57  75 CALM      29.98S
LANSING*       PTCLDY    65  57  75 E3        29.98F
JOLIET*        PTCLDY    68  59  71 E5        29.97S
WAUKEGAN       PTCLDY    64  55  72 E5        29.98F
DUPAGE AIRPORT MOCLDY    66  54  65 E5        29.98S
WHEELING       CLOUDY    64  55  72 CALM      29.99F
KANKAKEE*      PTCLDY    64  59  83 CALM      29.98S
MORRIS*        CLOUDY    66  57  73 CALM      29.96F
LEWIS AIRPORT* PTCLDY    66  55  69 E7        29.98S
$$

WIZ051-052-058>065-066-070>072-311000-
SOUTHEAST WISCONSIN

CITY           SKY/WX    TMP DP  RH WIND       PRES   REMARKS
MILWAUKEE      CLOUDY    63  56  78 SW3       29.99F
KENOSHA*       MOCLDY    61  55  81 CALM      29.99F
RACINE*        PTCLDY    62  55  77 CALM      30.00F
BURLINGTON     CLOUDY    62  57  84 CALM      29.99S
WAUKESHA       RAIN      63  54  72 SE7       30.01S
WEST BEND      MOCLDY    57  55  94 CALM      30.00S
$$

INZ001>003-010>013-019-020-311000-
NORTHWEST INDIANA

CITY           SKY/WX    TMP DP  RH WIND       PRES   REMARKS
GARY*          PTCLDY    66  64  93 SE5       29.98F
MICHIGAN CITY* NOT AVBL
RENSSELAER*    NOT AVBL
VALPARAISO     PTCLDY    64  57  78 E3        30.00S
$$

LMZ740>746-311000-
SOUTHERN LAKE MICHIGAN

STATION/POSITION TIME  SKY/WX   TEMP WIND        PRES    VSBY
                                AIR  DIR/SP/G
                 (UTC)          (F)  (DEG/KT/KT) (MB)    (MI)
HARRISON CRIB    0800            65  160/  6/  8   N/A
BURNHAM HARBOR   0900            62   CALM  /  3   N/A
CALUMET HARBOR   0800            64   70/  2/  6 1015.1F
BURNS HARBOR     0801            67   60/  5/ 10 1016.3S
MICHIGAN CITY    0800            68   80/  4/  7   N/A
$$

ABBREVIATIONS USED IN REMARKS
   TC - TEMPERATURE IN CELSIUS
  WCI - WIND CHILL INDEX
   HX - HEAT INDEX
  VSB - VISIBILITY
$$




USA.gov is the U.S. government's official web portal to all federal, state and local government web resources and services.